Temperature
18 17 17 17 17 17 17 17 16 15 15 16 16 16 16 16 15 15 15 15 15 15 15 15 15 15 15 15 15 15 15 14 14 14 14 14 14 14
17 17 17 17 17 17 16 16 16 16 15 15 15 15 15 15 15 15 15 15 15 15 15 14 15 15 15 15 15 14 14 14 14 14 14 14 14 13
17 17 17 17 16 16 16 16 16 16 16 15 15 15 15 15 15 15 15 15 15 14 14 14 14 14 14 14 14 14 14 14 14 14 13 13 13 13
17 17 16 16 16 16 16 16 16 16 15 15 15 15 15 14 14 14 14 14 14 14 14 14 14 14 14 14 14 14 14 14 14 13 13 13 13 13
16 16 16 16 16 16 16 16 15 15 15 15 15 14 14 14 14 14 14 14 14 14 14 14 14 14 14 13 13 13 13 13 13 13 13 13 13 13
16 16 16 16 16 15 15 15 15 15 15 15 14 14 14 14 14 14 14 14 14 14 13 13 13 13 13 13 13 13 13 13 13 13 13 13 13 13
16 16 16 15 15 15 15 15 15 15 14 14 14 14 14 14 14 13 13 14 13 13 13 13 13 13 13 13 13 13 13 13 13 13 13 13 13 13
16 15 15 15 15 15 15 15 14 14 14 14 14 14 14 14 13 13 13 13 13 13 13 13 13 13 13 13 13 13 13 13 13 13 13 13 13 13
15 15 15 15 15 15 15 14 14 14 14 14 14 14 13 13 13 13 13 13 13 13 13 13 13 13 13 13 13 13 13 13 13 13 13 13 13 12
15 15 15 15 15 15 14 14 14 14 14 13 13 13 13 13 13 13 13 13 13 13 12 13 13 13 13 13 13 13 13 13 13 12 12 12 12 12
15 15 15 15 14 14 14 14 14 14 13 13 13 13 13 13 13 13 12 12 12 12 12 12 12 13 13 13 13 12 12 13 12 12 12 12 12 12
15 14 14 14 14 14 14 14 14 13 13 13 13 13 13 13 12 12 12 12 12 12 12 12 12 12 12 12 12 12 12 12 12 12 12 12 12 12
14 14 14 14 14 14 14 13 13 13 13 13 13 12 12 12 12 12 12 12 12 12 12 12 12 12 12 12 12 12 12 12 12 12 12 12 12 12
14 14 14 14 14 13 13 13 13 13 12 12 12 12 12 12 12 12 12 12 12 12 12 12 12 12 12 12 12 12 12 12 12 12 12 12 12 11
13 13 13 13 13 13 13 13 13 12 12 12 12 12 12 12 12 12 12 12 12 12 12 12 12 11 11 11 11 11 12 11 12 12 12 12 11 11
13 13 13 13 13 13 12 12 12 12 12 12 12 12 11 11 11 11 12 12 12 12 12 12 11 11 11 11 11 11 11 11 11 11 11 11 11 11
12 12 12 12 12 12 12 12 12 12 12 12 11 11 11 11 11 11 11 11 11 11 11 11 11 11 11 11 11 11 11 11 11 11 11 11 11 11
12 12 12 12 12 12 11 11 11 11 11 11 11 11 11 11 11 11 11 11 11 11 11 11 11 11 11 11 11 11 11 11 11 11 11 11 11 11
12 12 12 12 11 11 11 11 11 11 11 11 11 11 11 11 11 11 11 11 11 11 11 11 11 11 11 11 11 11 11 11 11 11 11 11 11 11
12 12 11 11 11 11 11 11 11 11 11 11 11 11 11 11 10 10 10 10 10 11 11 11 11 11 11 11 11 11 11 11 11 11 11 11 11 11
12 11 11 11 11 11 11 11 11 10 10 10 11 11 10 10 10 10 10 10 10 10 10 10 10 10 10 10 10 10 11 11 11 11 11 11 11 11
11 11 11 11 11 11 10 10 10 10 10 10 10 10 10 10 10 10 10 10 10 10 10 10 10 10 10 10 10 10 10 10 11 11 10 10 10 10
11 11 11 11 10 10 10 10 10 10 10 10 10 10 10 10 10 10 10 10 10 10 10 10 10 10 10 10 10 10 10 10 10 10 10 10 10 10
Wind_Speed
1 1 1 1 1 2 2 3 3 2 2 2 2 2 2 3 4 4 5 6 7 7 6 6 6 6 6 6 6 6 6 6 6 7 6 6 6 6
1 1 1 1 1 1 2 2 2 3 3 3 3 3 2 2 3 4 5 6 7 7 7 6 6 6 6 6 7 7 7 7 6 6 6 6 6 6
1 1 1 1 1 1 1 2 2 2 3 3 2 2 1 1 1 3 4 5 5 7 7 7 7 7 6 5 6 6 6 7 7 7 6 6 7 7
2 1 2 1 1 1 1 1 2 3 3 3 2 1 2 2 2 2 3 4 5 6 7 7 7 7 7 6 6 7 7 7 7 7 7 7 7 7
3 3 2 1 1 1 1 1 1 1 2 3 2 2 2 1 0 1 1 1 4 5 6 6 7 8 8 8 8 8 8 8 8 8 8 8 8 8
3 3 3 3 3 2 1 1 1 1 1 1 1 2 1 1 0 1 1 2 3 3 4 5 7 8 9 9 9 9 9 10 9 9 9 8 8 9
3 3 3 3 4 3 2 2 2 2 1 1 2 1 2 1 2 2 2 2 3 2 1 3 3 4 6 9 10 11 10 10 10 10 10 10 9 9
3 2 2 2 3 2 3 3 4 4 3 3 2 3 4 3 2 2 2 1 3 2 2 3 3 4 5 7 10 12 11 11 11 11 10 10 10 10
4 3 3 2 2 2 2 1 2 4 5 5 5 5 4 5 3 3 3 3 4 3 2 3 3 4 5 7 11 12 12 11 11 11 11 11 10 10
4 4 4 3 2 2 2 1 2 3 4 4 5 5 5 5 5 5 4 3 3 2 3 3 3 3 4 5 9 10 11 11 11 11 11 11 10 9
3 2 3 3 3 3 3 2 2 3 3 3 4 4 5 5 4 2 1 1 2 3 2 2 2 2 2 3 6 8 9 10 10 10 11 11 10 9
1 1 3 3 3 3 3 3 3 4 3 3 3 3 3 3 3 4 4 3 2 3 2 2 2 1 2 2 2 3 4 6 8 9 9 10 9 7
2 2 2 3 3 3 4 4 5 4 3 2 2 2 2 2 2 2 3 4 4 4 3 2 2 2 2 2 2 2 2 2 3 4 6 7 8 8
3 2 3 4 4 4 3 4 4 2 1 1 1 2 2 2 3 2 3 4 4 5 4 3 3 3 2 2 3 2 1 2 2 3 4 5 6 8
2 3 3 4 3 3 3 3 2 1 1 1 2 3 3 3 2 2 2 2 2 2 2 2 2 2 2 3 3 2 2 2 2 3 3 3 4 4
1 2 3 3 1 1 1 1 1 2 2 2 2 3 2 1 1 1 2 1 1 3 3 2 3 2 2 3 3 3 2 2 2 3 3 3 3 5
1 0 1 0 0 1 1 1 1 1 1 2 1 2 2 2 2 1 1 1 1 2 3 2 2 2 3 3 2 3 2 2 3 3 2 3 3 4
3 1 2 2 3 3 3 2 2 2 3 2 2 2 3 3 2 2 1 1 2 3 3 2 1 1 2 2 3 3 2 3 2 2 2 2 3 3
3 3 3 3 3 4 3 3 3 3 3 3 2 3 3 3 2 2 1 1 2 3 3 2 1 2 2 3 3 3 4 3 2 2 2 2 3 3
3 4 4 4 3 3 3 3 3 2 2 2 2 2 3 2 2 2 2 2 2 2 2 1 2 3 4 4 3 3 3 3 2 2 2 1 1 2
4 4 4 4 4 4 3 3 3 3 2 2 2 3 3 2 3 3 3 3 2 2 3 4 5 5 2 1 0 2 2 2 3 3 2 1 1 1
4 4 4 4 4 3 3 3 2 2 2 3 3 3 3 3 3 4 3 3 3 3 4 3 3 1 1 2 3 3 2 2 2 1 1 3 3 3
4 3 3 3 3 3 3 3 3 3 3 3 3 3 3 3 3 3 3 3 3 3 2 2 1 1 2 2 2 2 2 1 1 2 3 5 3 5
Wind_Direction
205 193 193 216 187 187 170 165 165 212 267 268 276 267 230 215 221 209 210 212 211 212 216 222 223 221 221 216 215 223 220 218 221 219 215 211 216 222
189 152 234 240 209 179 179 182 170 181 228 246 246 264 240 240 238 217 217 215 214 214 215 220 222 222 224 220 218 221 220 218 221 216 212 214 223 228
232 205 251 215 193 195 176 175 184 171 216 265 262 278 272 266 259 222 215 205 217 219 220 223 220 221 225 224 221 220 220 221 219 217 218 218 221 227
228 234 264 225 172 197 172 189 208 199 194 232 276 278 259 243 235 233 221 220 222 229 225 225 225 224 222 223 228 227 227 228 226 226 227 225 224 226
213 209 225 188 215 233 185 215 233 220 181 189 243 261 264 247 263 274 257 245 238 238 230 229 229 227 222 225 228 228 229 229 229 229 230 231 230 231
212 205 205 191 203 203 201 213 203 175 160 175 233 274 269 269 181 233 291 287 272 254 232 229 233 233 232 234 235 234 231 229 228 229 230 232 232 233
233 223 216 200 198 193 200 199 178 171 182 194 227 273 278 259 242 226 244 279 277 249 260 245 228 235 240 243 241 241 236 232 230 230 229 229 229 229
224 236 228 201 201 195 198 196 187 194 204 207 228 235 245 239 232 227 222 247 270 243 207 251 214 233 241 237 240 239 236 232 231 232 232 229 228 228
206 216 238 227 203 208 228 239 246 232 214 203 213 229 230 228 214 230 231 228 240 234 196 250 240 239 244 242 240 239 236 233 232 233 233 231 228 227
218 215 210 221 215 180 180 221 274 269 247 223 216 230 237 233 216 215 222 240 263 251 187 228 246 249 260 251 244 236 233 232 234 234 232 231 228 227
233 207 185 197 215 187 166 189 263 286 279 258 246 244 249 242 212 178 206 218 273 271 218 201 235 254 264 262 251 240 235 236 236 236 234 230 227 225
248 241 223 210 218 203 187 193 229 260 280 298 295 293 279 261 234 204 197 205 234 260 244 190 217 206 288 279 259 246 238 239 239 236 233 229 222 214
220 248 251 225 223 222 208 210 225 233 238 250 274 290 294 288 276 246 211 200 209 237 230 179 196 195 203 271 292 261 233 230 225 233 236 229 218 207
228 244 243 234 241 239 225 223 232 227 206 223 267 276 273 272 271 265 240 222 217 224 222 183 186 193 194 233 268 282 265 232 211 228 236 224 219 219
231 247 249 246 251 248 247 237 204 169 168 194 244 255 255 255 266 290 291 282 288 273 247 216 193 194 189 209 233 242 260 263 223 213 217 214 214 208
264 269 258 252 251 263 282 251 188 185 188 207 239 264 279 285 274 260 266 279 298 305 301 276 217 189 206 228 216 230 224 227 231 220 216 224 225 214
189 22 15 2 309 308 295 278 248 212 216 235 234 266 279 285 278 273 254 242 237 268 288 298 273 224 209 201 215 234 234 242 237 222 205 226 235 223
152 173 223 230 227 230 237 250 249 234 230 227 228 240 250 251 259 268 246 223 237 253 259 263 281 27 2 302 222 218 236 240 239 214 194 211 249 246
169 210 223 228 232 227 222 225 240 243 230 226 232 244 248 245 240 247 247 243 253 256 258 245 205 170 207 268 276 221 203 232 226 220 220 211 232 247
208 216 223 225 226 223 221 228 244 254 245 239 238 240 241 237 237 238 232 230 242 254 270 265 225 211 214 232 248 271 235 206 207 225 243 244 266 281
223 223 224 220 221 221 223 223 224 232 238 235 237 239 236 225 232 236 234 238 232 240 253 258 253 247 222 130 298 291 293 256 217 202 198 190 264 299
227 226 229 228 224 224 220 215 221 230 236 235 235 238 237 226 229 232 229 227 228 229 241 258 274 272 160 193 228 253 283 316 332 328 251 221 189 198
223 221 221 225 222 215 214 217 220 232 234 236 238 238 235 235 236 231 228 222 218 225 239 261 277 236 227 215 217 232 251 268 325 0 345 338 278 238
Height
1525 1525 1524 1525 1525 1525 1525 1525 1525 1524 1523 1523 1523 1523 1523 1522 1522 1521 1521 1521 1520 1519 1519 1519 1518 1518 1518 1518 1519 1519 1519 1520 1520 1521 1521 1522 1523 1524
1523 1523 1523 1523 1523 1523 1523 1523 1523 1522 1521 1521 1521 1521 1520 1520 1520 1519 1519 1519 1518 1518 1517 1517 1516 1515 1515 1516 1516 1517 1517 1517 1518 1518 1519 1520 1521 1522
1521 1521 1521 1521 1521 1520 1520 1520 1520 1520 1519 1518 1519 1518 1518 1518 1517 1517 1516 1516 1516 1516 1515 1515 1514 1514 1513 1513 1514 1514 1514 1515 1516 1516 1517 1518 1519 1520
1519 1519 1519 1519 1518 1518 1518 1518 1518 1517 1517 1516 1516 1515 1515 1515 1515 1514 1514 1514 1514 1513 1513 1513 1513 1512 1512 1511 1511 1511 1512 1512 1513 1514 1515 1516 1517 1517
1517 1517 1517 1516 1516 1516 1516 1515 1515 1515 1514 1514 1513 1513 1513 1512 1512 1511 1511 1511 1511 1511 1510 1510 1510 1510 1510 1510 1510 1510 1510 1510 1511 1512 1513 1513 1514 1514
1514 1514 1514 1514 1514 1514 1513 1513 1512 1512 1512 1511 1511 1510 1510 1509 1509 1508 1508 1508 1508 1508 1508 1508 1508 1508 1508 1508 1508 1508 1508 1508 1509 1509 1510 1511 1511 1512
1512 1512 1512 1512 1511 1511 1511 1510 1510 1510 1509 1509 1508 1507 1507 1506 1506 1506 1505 1505 1505 1505 1505 1505 1505 1505 1505 1505 1505 1505 1505 1506 1506 1507 1508 1508 1508 1509
1509 1509 1509 1509 1509 1508 1508 1508 1508 1507 1507 1506 1505 1505 1504 1504 1503 1503 1503 1502 1502 1503 1502 1502 1502 1502 1502 1502 1503 1503 1503 1503 1504 1504 1505 1505 1505 1506
1506 1506 1506 1506 1506 1506 1505 1505 1505 1505 1504 1504 1503 1502 1501 1501 1501 1500 1500 1500 1499 1500 1500 1498 1499 1499 1499 1499 1499 1500 1500 1500 1501 1501 1501 1502 1502 1503
1503 1503 1503 1503 1503 1503 1503 1502 1502 1501 1501 1501 1500 1500 1499 1499 1498 1498 1497 1497 1497 1497 1497 1496 1495 1496 1496 1496 1496 1497 1497 1497 1498 1498 1498 1499 1499 1500
1500 1500 1500 1500 1500 1500 1500 1499 1499 1498 1498 1498 1497 1497 1496 1496 1496 1495 1495 1494 1493 1493 1493 1493 1492 1492 1493 1493 1493 1494 1494 1494 1495 1495 1495 1496 1496 1497
1497 1497 1498 1497 1497 1497 1497 1496 1496 1495 1495 1494 1494 1494 1493 1493 1493 1492 1492 1491 1490 1490 1490 1490 1490 1490 1490 1490 1490 1491 1491 1492 1492 1492 1492 1493 1493 1494
1494 1494 1494 1494 1494 1494 1494 1493 1493 1492 1492 1491 1491 1490 1490 1490 1489 1489 1488 1488 1487 1487 1487 1487 1487 1487 1487 1487 1487 1488 1488 1489 1489 1489 1489 1490 1490 1491
1491 1491 1491 1491 1491 1491 1491 1490 1490 1490 1489 1488 1488 1487 1487 1487 1486 1486 1486 1485 1485 1484 1484 1484 1484 1484 1484 1484 1484 1485 1486 1486 1486 1486 1487 1487 1487 1488
1488 1488 1489 1489 1488 1488 1487 1487 1487 1486 1486 1485 1485 1484 1484 1484 1484 1483 1483 1482 1482 1482 1482 1481 1481 1481 1481 1481 1481 1482 1482 1483 1483 1484 1484 1484 1484 1485
1485 1485 1485 1485 1485 1485 1484 1484 1484 1483 1483 1483 1482 1482 1481 1481 1481 1480 1480 1480 1479 1479 1479 1479 1479 1479 1478 1478 1479 1479 1479 1480 1480 1481 1481 1481 1481 1482
1481 1482 1482 1482 1481 1481 1481 1481 1481 1481 1480 1480 1479 1479 1478 1478 1477 1477 1477 1477 1476 1476 1476 1476 1477 1476 1476 1476 1476 1476 1476 1477 1477 1478 1478 1478 1478 1479
1478 1478 1478 1478 1478 1478 1478 1478 1478 1477 1477 1477 1476 1476 1475 1475 1474 1474 1474 1474 1473 1473 1473 1473 1474 1474 1474 1473 1474 1473 1474 1474 1475 1475 1475 1475 1475 1476
1474 1474 1474 1474 1475 1475 1475 1474 1474 1474 1474 1473 1473 1473 1472 1472 1472 1471 1471 1471 1471 1470 1471 1471 1471 1471 1470 1470 1471 1472 1472 1472 1472 1472 1472 1472 1472 1472
1471 1471 1471 1471 1471 1471 1471 1471 1471 1471 1471 1470 1470 1470 1469 1469 1469 1468 1468 1468 1468 1468 1468 1468 1468 1468 1468 1468 1468 1468 1469 1469 1469 1469 1469 1470 1470 1470
1468 1468 1468 1468 1468 1468 1468 1468 1468 1467 1467 1467 1466 1466 1466 1466 1466 1465 1465 1465 1465 1465 1464 1464 1465 1466 1465 1465 1465 1465 1466 1467 1467 1467 1467 1467 1467 1467
1464 1464 1464 1464 1464 1464 1464 1464 1464 1464 1463 1463 1463 1463 1463 1462 1462 1462 1462 1462 1462 1462 1462 1462 1462 1462 1462 1462 1462 1462 1463 1464 1464 1465 1465 1465 1465 1464
1461 1460 1460 1460 1461 1460 1461 1460 1460 1460 1460 1460 1459 1459 1459 1459 1459 1459 1458 1458 1458 1458 1459 1459 1459 1459 1459 1459 1459 1459 1460 1460 1461 1461 1462 1462 1463 1463